{"data":{"norad_id":68217,"intl_designator":"2026-053L","name":"STARLINK-37011","alt_names":[],"object_type":"PAYLOAD","status":"ACTIVE","operator":null,"country":"US","launch_date":"2026-03-17","launch_site_code":"AFWTR","launch_vehicle":null,"mission":null,"orbit_class":"UNKNOWN","rcs_meters":null,"size_class":null,"mass_kg":null,"dimensions":null,"purposes":["comms"],"wikipedia_slug":null,"has_3d_model":false,"image_url":null,"decayed_at":null,"tle_current":{"epoch":"2026-05-25T03:14:52.372896Z","epoch_age_seconds":73794,"freshness":"FRESH","line1":"1 68217U 26053L   26145.13532839  .00015679  00000+0  48677-3 0  9994","line2":"2 68217  97.2865  20.5859 0001634  91.3899 268.7531 15.33457151 11936","mean_motion":15.33457151,"eccentricity":0.0001634,"inclination_deg":97.2865,"raan_deg":20.5859,"arg_perigee_deg":91.3899,"mean_anomaly_deg":268.7531,"bstar":0.00048677,"rev_number":1193,"period_min":93.905460551079,"perigee_km":464.38877045664,"apogee_km":466.62527332299,"semimajor_km":6843.6440218898,"source":"CELESTRAK","updated_at":"2026-05-25T13:38:21.879538Z"}}}